EW8108 Weather Reports


time (UTC)temp
C
wind
direction
speed
KPH
gust
KPH
rain 1hr
cm
rain 24hr
cm
rain mn
cm
humidity
%
barometer
mb
20260506124332 23 257 0.0 0.0 0.00 0.00 0.00 1 970.6
20260506123333 23 257 0.0 0.0 0.00 0.00 0.00 1 970.4
20260506122315 23 257 0.0 0.0 0.00 0.00 0.00 1 970.3
20260506121329 23 257 0.0 0.0 0.00 0.00 0.00 1 970.3
20260506120318 23 257 0.0 0.0 0.00 0.00 0.00 1 970.4
20260506114122 23 257 0.0 0.0 0.00 0.00 0.00 1 970.3
20260506113143 24 257 0.0 0.0 0.00 0.00 0.00 1 970.5
20260506112119 24 257 0.0 0.0 0.00 0.00 0.00 1 970.6
20260506111123 24 257 0.0 0.0 0.00 0.00 0.00 1 970.7
20260506110139 24 257 0.0 0.0 0.00 0.00 0.00 1 970.5
20260506105117 24 257 0.0 0.0 0.00 0.00 0.00 1 970.5
20260506104109 24 257 0.0 0.0 0.00 0.00 0.00 1 970.4
20260506103127 24 257 0.0 0.0 0.00 0.00 0.00 1 970.3
20260506102133 24 257 0.0 0.0 0.00 0.00 0.00 1 970.2
20260506101130 24 257 0.0 0.0 0.00 0.00 0.00 1 970.2
20260506100148 24 257 0.0 0.0 0.00 0.00 0.00 1 970.0
20260506094010 24 257 0.0 3.2 0.00 0.00 0.00 1 969.8
20260506092952 24 257 0.0 0.0 0.00 0.00 0.00 1 969.6
20260506091922 24 254 0.0 1.6 0.00 0.00 0.00 1 969.5
20260506090926 24 256 0.0 3.2 0.00 0.00 0.00 1 969.4
20260506085854 24 259 0.0 0.0 0.00 0.00 0.00 1 969.2
20260506084858 24 264 0.0 0.0 0.00 0.00 0.00 1 969.2
20260506082726 24 246 0.0 6.4 0.00 0.00 0.00 1 969.3
20260506081701 24 249 0.0 3.2 0.00 0.00 0.00 1 969.2
20260506072533 24 269 0.0 0.0 0.00 0.00 0.00 1 969.6
20260506071534 24 271 0.0 12.9 0.00 0.00 0.00 1 969.8
20260506070532 24 257 0.0 4.8 0.00 0.00 0.00 1 969.6
20260506062432 24 244 0.0 11.3 0.00 0.00 0.00 1 969.5
20260506061426 24 238 0.0 0.0 0.00 0.00 0.00 1 969.6
20260506060437 24 262 0.0 0.0 0.00 0.00 0.00 1 969.5
20260506045041 25 239 0.0 6.4 0.00 0.00 0.00 1 969.6
20260506041732 25 226 0.0 0.0 0.00 0.00 0.00 1 969.5
20260506040755 25 226 0.0 4.8 0.00 0.00 0.00 1 969.5
20260506035757 25 225 0.0 0.0 0.00 0.00 0.00 1 969.3
20260506034730 25 225 0.0 1.6 0.00 0.00 0.00 1 969.3
20260506033709 25 225 0.0 1.6 0.00 0.00 0.00 1 969.1
20260506032654 24 225 0.0 0.0 0.00 0.00 0.00 1 969.0
20260506030453 24 225 0.0 0.0 0.00 0.00 0.00 1 968.9
20260506023217 25 225 0.0 0.0 0.00 0.00 0.00 1 968.4
20260506022233 25 225 0.0 0.0 0.00 0.00 0.00 1 968.1
20260506021223 25 225 0.0 0.0 0.00 0.00 0.00 1 968.0
20260506020232 25 225 0.0 0.0 0.00 0.00 0.00 5 967.9
20260506015244 25 225 0.0 0.0 0.00 0.00 0.00 10 967.7
20260506014213 25 229 0.0 0.0 0.00 0.00 0.00 19 967.5
20260506013158 25 229 0.0 0.0 0.00 0.00 0.00 30 967.6
20260506012137 25 229 0.0 0.0 0.00 0.00 0.00 38 967.7
20260506011157 25 229 0.0 0.0 0.00 0.00 0.00 45 967.5
20260506010143 26 229 0.0 0.0 0.00 0.00 0.00 50 967.4
20260506005152 26 229 0.0 0.0 0.00 0.00 0.00 53 967.5
20260506004153 26 228 0.0 0.0 0.00 0.00 0.00 54 967.5
20260506003132 26 228 0.0 0.0 0.00 0.00 0.00 56 967.5
20260506002118 26 227 0.0 4.8 0.00 0.00 0.00 58 967.5
20260506001107 26 229 0.0 0.0 0.00 0.00 0.00 59 967.6
20260506000108 26 231 0.0 1.6 0.00 0.00 0.00 61 967.5
20260505235133 26 229 0.0 8.0 0.00 0.00 0.00 61 967.5
20260505234105 27 279 0.0 1.6 0.00 0.00 0.00 61 967.3
20260505233104 27 281 0.0 1.6 0.00 0.00 0.00 61 967.2
20260505232032 27 248 0.0 3.2 0.00 0.00 0.00 62 967.2
20260505231049 27 236 0.0 6.4 0.00 0.00 0.00 62 967.1
20260505230051 27 244 0.0 6.4 0.00 0.00 0.00 62 967.1
20260505225058 27 234 0.0 6.4 0.00 0.00 0.00 62 967.1
20260505224034 28 265 0.0 6.4 0.00 0.00 0.00 62 967.1
20260505223042 28 261 0.0 6.4 0.00 0.00 0.00 62 967.0
20260505222048 28 234 0.0 6.4 0.00 0.00 0.00 61 966.9
20260505221040 28 256 0.0 3.2 0.00 0.00 0.00 61 967.0
20260505220020 28 246 0.0 6.4 0.00 0.00 0.00 61 967.1
20260505214954 29 252 0.0 4.8 0.00 0.00 0.00 61 967.1
20260505212852 30 104 0.0 6.4 0.00 0.00 0.00 60 967.5
20260505211832 30 104 0.0 6.4 0.00 0.00 0.00 60 967.4
20260505210818 30 254 0.0 9.7 0.00 0.00 0.00 60 967.6
20260505204725 30 232 0.0 11.3 0.00 0.00 0.00 60 967.7
20260505203723 30 209 0.0 11.3 0.00 0.00 0.00 60 967.7
20260505201624 30 304 0.0 4.8 0.00 0.00 0.00 60 968.1
20260505200626 30 263 0.0 6.4 0.00 0.00 0.00 59 968.4
20260505195605 29 259 0.0 6.4 0.00 0.00 0.00 59 968.5
20260505194534 28 297 0.0 9.7 0.00 0.00 0.00 60 968.6
20260505192426 27 193 0.0 8.0 0.00 0.00 0.00 60 968.9
20260505191407 27 220 0.0 6.4 0.00 0.00 0.00 60 968.9
20260505190410 27 234 0.0 4.8 0.00 0.00 0.00 60 968.9
20260505184243 27 273 0.0 9.7 0.00 0.00 0.00 59 969.3
20260505183213 26 255 0.0 4.8 0.00 0.00 0.00 57 969.4
20260505182214 26 271 0.0 8.0 0.00 0.00 0.00 53 969.5
20260505181224 25 268 0.0 8.0 0.00 0.00 0.00 51 969.6
20260505180232 25 252 0.0 9.7 0.00 0.00 0.00 47 969.7
20260505175242 25 265 0.0 8.0 0.00 0.00 0.00 44 969.9
20260505173145 25 194 0.0 0.0 0.00 0.00 0.00 30 970.0
20260505172137 24 255 0.0 1.6 0.00 0.00 0.00 20 970.0
20260505171155 24 296 0.0 3.2 0.00 0.00 0.00 16 970.1
20260505164959 23 231 0.0 8.0 0.00 0.00 0.00 1 970.1
20260505163939 23 266 0.0 4.8 0.00 0.00 0.00 1 970.2
20260505162933 23 209 0.0 3.2 0.00 0.00 0.00 1 970.1
20260505161925 23 257 0.0 1.6 0.00 0.00 0.00 1 970.0
20260505160934 23 239 0.0 6.4 0.00 0.00 0.00 1 970.2
20260505153010 22 234 0.0 4.8 0.00 0.00 0.00 1 970.1
20260505152016 22 267 0.0 3.2 0.00 0.00 0.00 1 970.2
20260505151019 22 272 0.0 6.4 0.00 0.00 0.00 1 970.1